Lulu Pass Weather Station

This weather station provides temperature, relative humidity (RH), wind speed, gust or max wind speed, and wind direction at 10020ft near Lulu Pass at the head of Fisher Creek. This data can be used with temperature and precipitation data from the Fisher Creek SNOTEL site.

This weather station was purchased by the Friends of the Avalanche Center.

If the data has not been updated recently you can view it directly on datagarrison.com

Elevation
10020ft
Jump to table bottom
Date Time Temperature
deg F
RH, % Wind Speed Wind Gust Wind Direction
08/14/22 05:00 47.6 69 9 11 NW - 317
08/14/22 04:00 48.5 67 9 14 NW - 310
08/14/22 03:00 49.4 67 8 12 NW - 323
08/14/22 02:00 48.7 68 8 10 NW - 323
08/14/22 01:00 48.8 68 5 10 N - 340
08/14/22 00:00 50.1 64 2 5 S - 166
08/13/22 23:00 51.3 69 3 6 E - 105
08/13/22 22:00 50.1 88 5 14 SE - 125
08/13/22 21:00 45.9 94 6 16 SE - 140
08/13/22 20:00 46.1 89 10 22 SE - 140
08/13/22 19:00 48.2 85 8 19 S - 173
08/13/22 18:00 49.3 84 3 12 NE - 27
08/13/22 17:00 50.7 79 9 18 N - 352
08/13/22 16:00 50.3 81 21 33 NW - 319
08/13/22 15:00 53.6 59 16 34 W - 263
08/13/22 14:00 64.2 40 6 18 S - 197
08/13/22 13:00 66.6 48 5 11 SW - 222
08/13/22 12:00 66.8 55 6 14 W - 260
08/13/22 11:00 64.5 59 5 10 W - 261
08/13/22 10:00 59.5 61 5 11 W - 281
08/13/22 09:00 58.2 58 4 11 NW - 300
08/13/22 08:00 58.2 57 4 8 NW - 326
08/13/22 07:00 53.3 60 1 5 NW - 323
08/13/22 06:00 53.6 60 3 7 W - 263
08/13/22 05:00 53.5 58 5 14 S - 175
08/13/22 04:00 54.3 56 5 10 W - 279
08/13/22 03:00 53.7 62 3 9 S - 168
08/13/22 02:00 51.8 68 2 7 S - 180
08/13/22 01:00 51.5 68 5 14 N - 4
08/13/22 00:00 51.1 72 8 13 NW - 336
08/12/22 23:00 49.6 76 14 21 NW - 326
08/12/22 22:00 51.4 70 11 22 W - 285
08/12/22 21:00 53.8 65 5 14 SE - 142
08/12/22 20:00 52.5 67 4 12 SE - 128
08/12/22 19:00 52.7 70 3 12 N - 7
08/12/22 18:00 52.9 72 7 21 NE - 55
08/12/22 17:00 52.5 69 11 27 NE - 37
08/12/22 16:00 55.9 62 8 21 NE - 24
08/12/22 15:00 59.4 61 5 18 N - 354
08/12/22 14:00 63.7 53 6 16 NW - 302
08/12/22 13:00 64.2 46 6 17 W - 274
08/12/22 12:00 63.9 55 5 15 W - 265
08/12/22 11:00 62.9 52 4 14 SW - 230
08/12/22 10:00 62.1 50 4 12 S - 199
08/12/22 09:00 61.2 53 4 10 S - 164
08/12/22 08:00 58.2 55 1 6 SE - 129
08/12/22 07:00 55.8 57 1 3 N - 17
08/12/22 06:00 54.0 60 2 5 N - 344
08/12/22 05:00 52.9 61 1 5 NW - 323
08/12/22 04:00 54.1 58 1 5 E - 91